Tracking 19846 objects as of 19-Sep-2019
HD Live streaming from Space Station
objects crossing your sky now

COSMOS 1375 DEB

Track COSMOS 1375 DEB now!
10-day predictions


NORAD ID: 17799
Int'l Code: 1982-055AR
Perigee: 903.0 km
Apogee: 950.0 km
Inclination: 65.8 °
Period: 103.4 minutes
Semi major axis: 7297 km
RCS: 0.043 m2 (small)
Launch date: June 6, 1982
Source: Commonwealth of Independent States (former USSR) (CIS)
Launch site: PLESETSK MISSILE AND SPACE COMPLEX (PKMTR)

Note: This is SATELLITE DEBRIS
aabbcc
Your satellite tracking list
Your tracking list is empty




NASA's NSSDC Master Catalog

Two Line Element Set (TLE):
1 17799U 82055AR  19260.84545670 +.00000103 +00000-0 +14478-3 0  9991
2 17799 065.8380 122.1441 0032202 225.8292 216.8535 13.92653655716378
Source of the keplerian elements: AFSPC